| time (UTC) | temp F | wind direction | speed MPH | gust MPH | rain 1hr in | rain 24hr in | rain mn in | humidity % | barometer mb |
| 20260505094054 | 55 | 240 | 0.0 | 4.0 | 0.00 | 0.00 | 0.00 | 69 | 1001.2 |
| 20260505093554 | 56 | 240 | 0.0 | 4.0 | 0.00 | 0.00 | 0.00 | 68 | 1001.3 |
| 20260505093052 | 56 | 240 | 0.0 | 3.0 | 0.00 | 0.00 | 0.00 | 68 | 1001.3 |
| 20260505092556 | 56 | 236 | 0.0 | 3.0 | 0.00 | 0.00 | 0.00 | 66 | 1001.3 |
| 20260505092051 | 57 | 236 | 0.0 | 3.0 | 0.00 | 0.00 | 0.00 | 66 | 1001.2 |
| 20260505091550 | 57 | 236 | 0.0 | 3.0 | 0.00 | 0.00 | 0.00 | 65 | 1001.2 |
| 20260505091052 | 57 | 165 | 0.0 | 0.0 | 0.00 | 0.00 | 0.00 | 64 | 1001.1 |
| 20260505090550 | 57 | 164 | 0.0 | 1.0 | 0.00 | 0.00 | 0.00 | 65 | 1001.1 |
| 20260505090101 | 57 | 164 | 0.0 | 1.0 | 0.00 | 0.00 | 0.00 | 65 | 1001.2 |
| 20260505085549 | 57 | 190 | 0.0 | 2.0 | 0.00 | 0.00 | 0.00 | 64 | 1001.2 |
| 20260505085049 | 57 | 190 | 0.0 | 2.0 | 0.00 | 0.00 | 0.00 | 64 | 1001.2 |
| 20260505084552 | 57 | 191 | 1.0 | 3.0 | 0.00 | 0.00 | 0.00 | 63 | 1001.2 |
| 20260505084047 | 57 | 193 | 1.0 | 3.0 | 0.00 | 0.00 | 0.00 | 63 | 1001.1 |
| 20260505083549 | 57 | 162 | 1.0 | 6.0 | 0.00 | 0.00 | 0.00 | 64 | 1001.1 |
| 20260505083055 | 57 | 186 | 2.0 | 6.0 | 0.00 | 0.00 | 0.00 | 63 | 1001.1 |
| 20260505082546 | 57 | 157 | 1.0 | 6.0 | 0.00 | 0.00 | 0.00 | 63 | 1001.1 |
| 20260505082047 | 57 | 156 | 2.0 | 5.0 | 0.00 | 0.00 | 0.00 | 63 | 1001.1 |
| 20260505081547 | 56 | 145 | 2.0 | 7.0 | 0.00 | 0.00 | 0.00 | 63 | 1001.2 |
| 20260505081046 | 56 | 171 | 4.0 | 7.0 | 0.00 | 0.00 | 0.00 | 63 | 1001.2 |
| 20260505080544 | 57 | 174 | 3.0 | 7.0 | 0.00 | 0.00 | 0.00 | 62 | 1001.2 |
| 20260505080043 | 57 | 170 | 1.0 | 7.0 | 0.00 | 0.00 | 0.00 | 60 | 1001.1 |
| 20260505075544 | 58 | 169 | 1.0 | 5.0 | 0.00 | 0.00 | 0.00 | 57 | 1001.2 |
| 20260505075042 | 58 | 149 | 3.0 | 6.0 | 0.00 | 0.00 | 0.00 | 53 | 1001.2 |
| 20260505074541 | 58 | 160 | 1.0 | 5.0 | 0.00 | 0.00 | 0.00 | 52 | 1001.2 |
| 20260505074041 | 59 | 160 | 0.0 | 3.0 | 0.00 | 0.00 | 0.00 | 51 | 1001.3 |
| 20260505073543 | 59 | 185 | 2.0 | 4.0 | 0.00 | 0.00 | 0.00 | 51 | 1001.3 |
| 20260505073041 | 59 | 154 | 1.0 | 4.0 | 0.00 | 0.00 | 0.00 | 51 | 1001.3 |
| 20260505072544 | 59 | 164 | 2.0 | 5.0 | 0.00 | 0.00 | 0.00 | 50 | 1001.3 |
| 20260505072039 | 59 | 174 | 1.0 | 8.0 | 0.00 | 0.00 | 0.00 | 50 | 1001.2 |
| 20260505071538 | 58 | 177 | 2.0 | 8.0 | 0.00 | 0.00 | 0.00 | 50 | 1000.9 |
| 20260505071038 | 58 | 162 | 3.0 | 9.0 | 0.00 | 0.00 | 0.00 | 51 | 1000.9 |
| 20260505070538 | 58 | 170 | 3.0 | 12.0 | 0.00 | 0.00 | 0.00 | 52 | 1000.8 |
| 20260505070042 | 58 | 180 | 4.0 | 9.0 | 0.00 | 0.00 | 0.00 | 52 | 1000.7 |
| 20260505065536 | 58 | 181 | 3.0 | 9.0 | 0.00 | 0.00 | 0.00 | 52 | 1000.7 |
| 20260505065036 | 58 | 155 | 4.0 | 13.0 | 0.00 | 0.00 | 0.00 | 52 | 1000.7 |
| 20260505064534 | 58 | 173 | 3.0 | 11.0 | 0.00 | 0.00 | 0.00 | 52 | 1000.5 |
| 20260505064033 | 59 | 109 | 5.0 | 11.0 | 0.00 | 0.00 | 0.00 | 52 | 1000.5 |
| 20260505063533 | 59 | 151 | 4.0 | 12.0 | 0.00 | 0.00 | 0.00 | 52 | 1000.4 |
| 20260505063038 | 59 | 142 | 4.0 | 12.0 | 0.00 | 0.00 | 0.00 | 51 | 1000.5 |
| 20260505062533 | 59 | 177 | 4.0 | 11.0 | 0.00 | 0.00 | 0.00 | 51 | 1000.4 |
| 20260505062031 | 59 | 178 | 5.0 | 11.0 | 0.00 | 0.00 | 0.00 | 51 | 1000.4 |
| 20260505061536 | 59 | 179 | 5.0 | 12.0 | 0.00 | 0.00 | 0.00 | 51 | 1000.4 |
| 20260505061032 | 59 | 169 | 5.0 | 12.0 | 0.00 | 0.00 | 0.00 | 52 | 1000.4 |
| 20260505060528 | 59 | 171 | 5.0 | 12.0 | 0.00 | 0.00 | 0.00 | 52 | 1000.4 |
| 20260505060032 | 59 | 166 | 5.0 | 16.0 | 0.00 | 0.00 | 0.00 | 52 | 1000.4 |
| 20260505055527 | 59 | 162 | 5.0 | 16.0 | 0.00 | 0.00 | 0.00 | 52 | 1000.4 |
| 20260505055027 | 59 | 153 | 4.0 | 11.0 | 0.00 | 0.00 | 0.00 | 52 | 1000.5 |
| 20260505054536 | 59 | 176 | 4.0 | 13.0 | 0.00 | 0.00 | 0.00 | 52 | 1000.4 |
| 20260505054029 | 59 | 188 | 4.0 | 15.0 | 0.00 | 0.00 | 0.00 | 52 | 1000.5 |
| 20260505053526 | 60 | 141 | 3.0 | 15.0 | 0.00 | 0.00 | 0.00 | 52 | 1000.6 |
| 20260505053033 | 60 | 179 | 4.0 | 11.0 | 0.00 | 0.00 | 0.00 | 53 | 1000.5 |
| 20260505052525 | 60 | 155 | 4.0 | 12.0 | 0.00 | 0.00 | 0.00 | 52 | 1000.6 |
| 20260505052026 | 60 | 152 | 4.0 | 12.0 | 0.00 | 0.00 | 0.00 | 51 | 1000.4 |
| 20260505051524 | 61 | 101 | 5.0 | 11.0 | 0.00 | 0.00 | 0.00 | 50 | 1000.6 |
| 20260505051024 | 61 | 131 | 4.0 | 9.0 | 0.00 | 0.00 | 0.00 | 49 | 1000.4 |
| 20260505050527 | 61 | 140 | 1.0 | 8.0 | 0.00 | 0.00 | 0.00 | 49 | 1000.5 |
| 20260505041521 | 64 | 114 | 1.0 | 6.0 | 0.00 | 0.00 | 0.00 | 38 | 999.8 |
| 20260505041020 | 64 | 163 | 2.0 | 8.0 | 0.00 | 0.00 | 0.00 | 38 | 999.5 |
| 20260505040520 | 64 | 171 | 2.0 | 9.0 | 0.00 | 0.00 | 0.00 | 39 | 999.5 |
| 20260505040020 | 64 | 181 | 2.0 | 9.0 | 0.00 | 0.00 | 0.00 | 39 | 999.4 |
| 20260505035519 | 64 | 160 | 2.0 | 4.0 | 0.00 | 0.00 | 0.00 | 39 | 999.3 |
| 20260505035019 | 64 | 165 | 2.0 | 6.0 | 0.00 | 0.00 | 0.00 | 40 | 999.1 |
| 20260505034522 | 64 | 169 | 3.0 | 6.0 | 0.00 | 0.00 | 0.00 | 40 | 999.0 |
| 20260505034020 | 65 | 177 | 3.0 | 6.0 | 0.00 | 0.00 | 0.00 | 40 | 999.0 |
| 20260505033520 | 65 | 176 | 4.0 | 6.0 | 0.00 | 0.00 | 0.00 | 40 | 998.9 |
| 20260505033021 | 65 | 180 | 4.0 | 7.0 | 0.00 | 0.00 | 0.00 | 40 | 998.9 |
| 20260505032521 | 65 | 177 | 4.0 | 6.0 | 0.00 | 0.00 | 0.00 | 39 | 999.0 |
| 20260505032019 | 65 | 169 | 3.0 | 7.0 | 0.00 | 0.00 | 0.00 | 38 | 999.0 |
| 20260505031518 | 66 | 159 | 1.0 | 3.0 | 0.00 | 0.00 | 0.00 | 38 | 999.0 |
| 20260505031018 | 66 | 182 | 1.0 | 5.0 | 0.00 | 0.00 | 0.00 | 37 | 998.8 |
| 20260505030518 | 66 | 172 | 2.0 | 5.0 | 0.00 | 0.00 | 0.00 | 38 | 998.8 |
| 20260505030025 | 66 | 170 | 2.0 | 4.0 | 0.00 | 0.00 | 0.00 | 37 | 999.0 |
| 20260505025518 | 66 | 153 | 2.0 | 5.0 | 0.00 | 0.00 | 0.00 | 37 | 998.9 |
| 20260505025017 | 66 | 138 | 0.0 | 8.0 | 0.00 | 0.00 | 0.00 | 37 | 998.8 |
| 20260505024518 | 66 | 149 | 0.0 | 10.0 | 0.00 | 0.00 | 0.00 | 36 | 998.7 |
| 20260505024017 | 66 | 147 | 2.0 | 10.0 | 0.00 | 0.00 | 0.00 | 36 | 998.6 |
| 20260505023517 | 66 | 193 | 2.0 | 6.0 | 0.00 | 0.00 | 0.00 | 36 | 998.5 |
| 20260505023017 | 66 | 147 | 2.0 | 6.0 | 0.00 | 0.00 | 0.00 | 36 | 998.5 |
| 20260505022520 | 67 | 168 | 1.0 | 5.0 | 0.00 | 0.00 | 0.00 | 36 | 998.5 |
| 20260505022017 | 67 | 150 | 1.0 | 5.0 | 0.00 | 0.00 | 0.00 | 35 | 998.4 |
| 20260505021517 | 67 | 163 | 2.0 | 7.0 | 0.00 | 0.00 | 0.00 | 35 | 998.5 |
| 20260505021020 | 67 | 139 | 2.0 | 5.0 | 0.00 | 0.00 | 0.00 | 35 | 998.4 |
| 20260505020516 | 66 | 155 | 0.0 | 1.0 | 0.00 | 0.00 | 0.00 | 36 | 998.2 |
| 20260505020016 | 66 | 147 | 0.0 | 2.0 | 0.00 | 0.00 | 0.00 | 37 | 998.1 |
| 20260505015516 | 66 | 147 | 0.0 | 2.0 | 0.00 | 0.00 | 0.00 | 37 | 998.3 |
| 20260505015016 | 67 | 151 | 0.0 | 1.0 | 0.00 | 0.00 | 0.00 | 37 | 998.3 |
| 20260505014517 | 67 | 157 | 0.0 | 1.0 | 0.00 | 0.00 | 0.00 | 37 | 998.3 |
| 20260505014017 | 67 | 157 | 0.0 | 1.0 | 0.00 | 0.00 | 0.00 | 37 | 998.3 |
| 20260505013514 | 67 | 134 | 0.0 | 2.0 | 0.00 | 0.00 | 0.00 | 39 | 998.5 |
| 20260505013014 | 67 | 134 | 0.0 | 4.0 | 0.00 | 0.00 | 0.00 | 34 | 998.5 |
| 20260505012514 | 68 | 121 | 0.0 | 4.0 | 0.00 | 0.00 | 0.00 | 34 | 998.5 |
| 20260505012016 | 68 | 152 | 0.0 | 4.0 | 0.00 | 0.00 | 0.00 | 33 | 998.6 |
| 20260505011518 | 68 | 99 | 1.0 | 7.0 | 0.00 | 0.00 | 0.00 | 33 | 998.5 |
| 20260505011012 | 68 | 110 | 1.0 | 7.0 | 0.00 | 0.00 | 0.00 | 33 | 998.6 |
| 20260505010512 | 68 | 104 | 1.0 | 6.0 | 0.00 | 0.00 | 0.00 | 34 | 998.6 |
| 20260505010012 | 68 | 117 | 0.0 | 8.0 | 0.00 | 0.00 | 0.00 | 33 | 998.7 |
| 20260505005514 | 68 | 116 | 1.0 | 9.0 | 0.00 | 0.00 | 0.00 | 33 | 998.7 |
| 20260505005012 | 68 | 103 | 3.0 | 9.0 | 0.00 | 0.00 | 0.00 | 32 | 998.6 |
| 20260505004523 | 68 | 105 | 1.0 | 8.0 | 0.00 | 0.00 | 0.00 | 33 | 998.7 |
| 20260505004010 | 68 | 84 | 2.0 | 10.0 | 0.00 | 0.00 | 0.00 | 33 | 998.7 |
| 20260505003515 | 69 | 88 | 2.0 | 11.0 | 0.00 | 0.00 | 0.00 | 34 | 998.7 |
| 20260505003011 | 69 | 66 | 4.0 | 13.0 | 0.00 | 0.00 | 0.00 | 33 | 998.7 |
| 20260505002510 | 69 | 84 | 4.0 | 13.0 | 0.00 | 0.00 | 0.00 | 33 | 998.9 |
| 20260505002009 | 69 | 103 | 2.0 | 10.0 | 0.00 | 0.00 | 0.00 | 33 | 998.8 |
| 20260505001508 | 69 | 130 | 3.0 | 12.0 | 0.00 | 0.00 | 0.00 | 34 | 998.8 |
| 20260505001008 | 69 | 59 | 6.0 | 13.0 | 0.00 | 0.00 | 0.00 | 35 | 998.9 |
| 20260505000507 | 68 | 92 | 6.0 | 13.0 | 0.00 | 0.00 | 0.00 | 34 | 998.9 |
| 20260505000011 | 68 | 37 | 6.0 | 12.0 | 0.00 | 0.00 | 0.00 | 34 | 999.0 |
| 20260504235507 | 68 | 90 | 4.0 | 10.0 | 0.00 | 0.00 | 0.00 | 35 | 999.1 |
| 20260504235007 | 68 | 93 | 2.0 | 11.0 | 0.00 | 0.00 | 0.00 | 35 | 999.2 |
| 20260504234507 | 68 | 92 | 3.0 | 11.0 | 0.00 | 0.00 | 0.00 | 34 | 999.2 |
| 20260504234006 | 69 | 62 | 3.0 | 11.0 | 0.00 | 0.00 | 0.00 | 34 | 999.2 |
| 20260504233506 | 69 | 58 | 4.0 | 11.0 | 0.00 | 0.00 | 0.00 | 33 | 999.3 |
| 20260504233007 | 70 | 182 | 4.0 | 13.0 | 0.00 | 0.00 | 0.00 | 32 | 999.3 |
| 20260504232507 | 70 | 62 | 4.0 | 13.0 | 0.00 | 0.00 | 0.00 | 30 | 999.3 |
| 20260504232006 | 71 | 139 | 1.0 | 8.0 | 0.00 | 0.00 | 0.00 | 30 | 999.1 |
| 20260504231519 | 71 | 106 | 2.0 | 8.0 | 0.00 | 0.00 | 0.00 | 31 | 999.1 |
| 20260504231004 | 71 | 20 | 1.0 | 12.0 | 0.00 | 0.00 | 0.00 | 32 | 999.0 |
| 20260504230504 | 70 | 137 | 4.0 | 12.0 | 0.00 | 0.00 | 0.00 | 32 | 999.1 |
| 20260504230005 | 70 | 70 | 4.0 | 12.0 | 0.00 | 0.00 | 0.00 | 33 | 999.2 |
| 20260504225507 | 70 | 144 | 3.0 | 12.0 | 0.00 | 0.00 | 0.00 | 33 | 999.1 |
| 20260504225004 | 70 | 88 | 2.0 | 11.0 | 0.00 | 0.00 | 0.00 | 33 | 999.1 |
| 20260504224503 | 70 | 120 | 4.0 | 13.0 | 0.00 | 0.00 | 0.00 | 31 | 999.1 |
| 20260504224003 | 72 | 169 | 6.0 | 13.0 | 0.00 | 0.00 | 0.00 | 29 | 999.1 |
| 20260504223503 | 71 | 101 | 0.0 | 2.0 | 0.00 | 0.00 | 0.00 | 28 | 999.0 |
| 20260504223003 | 71 | 153 | 0.0 | 1.0 | 0.00 | 0.00 | 0.00 | 27 | 999.0 |
| 20260504222505 | 71 | 196 | 0.0 | 2.0 | 0.00 | 0.00 | 0.00 | 26 | 999.0 |
| 20260504222003 | 72 | 214 | 0.0 | 2.0 | 0.00 | 0.00 | 0.00 | 26 | 999.0 |
| 20260504221504 | 71 | 215 | 1.0 | 10.0 | 0.00 | 0.00 | 0.00 | 27 | 998.9 |
| 20260504221002 | 71 | 212 | 2.0 | 10.0 | 0.00 | 0.00 | 0.00 | 28 | 999.0 |
| 20260504220502 | 71 | 250 | 4.0 | 11.0 | 0.00 | 0.00 | 0.00 | 27 | 998.9 |
| 20260504220002 | 71 | 228 | 4.0 | 11.0 | 0.00 | 0.00 | 0.00 | 26 | 998.9 |
| 20260504215503 | 72 | 210 | 1.0 | 4.0 | 0.00 | 0.00 | 0.00 | 26 | 999.1 |
| 20260504215001 | 71 | 206 | 2.0 | 15.0 | 0.00 | 0.00 | 0.00 | 26 | 999.1 |
| 20260504214501 | 71 | 198 | 6.0 | 15.0 | 0.00 | 0.00 | 0.00 | 27 | 999.0 |
| 20260504214003 | 72 | 252 | 3.0 | 11.0 | 0.00 | 0.00 | 0.00 | 26 | 999.0 |
| 20260504213601 | 72 | 238 | 3.0 | 12.0 | 0.00 | 0.00 | 0.00 | 26 | 999.1 |
| 20260504213105 | 72 | 277 | 6.0 | 13.0 | 0.00 | 0.00 | 0.00 | 28 | 999.0 |
| 20260504212559 | 72 | 269 | 7.0 | 13.0 | 0.00 | 0.00 | 0.00 | 28 | 999.1 |
| 20260504212100 | 72 | 264 | 6.0 | 10.0 | 0.00 | 0.00 | 0.00 | 29 | 999.1 |
| 20260504211604 | 73 | 313 | 5.0 | 15.0 | 0.00 | 0.00 | 0.00 | 27 | 999.2 |
| 20260504211058 | 73 | 267 | 5.0 | 12.0 | 0.00 | 0.00 | 0.00 | 28 | 999.3 |
| 20260504210557 | 73 | 325 | 4.0 | 12.0 | 0.00 | 0.00 | 0.00 | 28 | 999.4 |
| 20260504210104 | 73 | 302 | 2.0 | 5.0 | 0.00 | 0.00 | 0.00 | 29 | 999.5 |
| 20260504205558 | 72 | 48 | 1.0 | 4.0 | 0.00 | 0.00 | 0.00 | 28 | 999.5 |
| 20260504205058 | 73 | 238 | 0.0 | 11.0 | 0.00 | 0.00 | 0.00 | 27 | 999.7 |
| 20260504204636 | 73 | 244 | 2.0 | 11.0 | 0.00 | 0.00 | 0.00 | 28 | 999.7 |
| 20260504204055 | 73 | 257 | 2.0 | 6.0 | 0.00 | 0.00 | 0.00 | 28 | 999.6 |
| 20260504203555 | 73 | 51 | 1.0 | 9.0 | 0.00 | 0.00 | 0.00 | 27 | 999.7 |
| 20260504203055 | 73 | 299 | 4.0 | 11.0 | 0.00 | 0.00 | 0.00 | 28 | 999.7 |
| 20260504202555 | 73 | 325 | 6.0 | 12.0 | 0.00 | 0.00 | 0.00 | 26 | 999.8 |
| 20260504202055 | 73 | 292 | 9.0 | 13.0 | 0.00 | 0.00 | 0.00 | 27 | 999.8 |
| 20260504201554 | 73 | 304 | 8.0 | 13.0 | 0.00 | 0.00 | 0.00 | 27 | 999.7 |
| 20260504201054 | 72 | 311 | 6.0 | 13.0 | 0.00 | 0.00 | 0.00 | 28 | 999.7 |
| 20260504200555 | 73 | 323 | 7.0 | 15.0 | 0.00 | 0.00 | 0.00 | 27 | 999.8 |
| 20260504200056 | 73 | 325 | 7.0 | 13.0 | 0.00 | 0.00 | 0.00 | 27 | 999.9 |
| 20260504195552 | 74 | 327 | 6.0 | 12.0 | 0.00 | 0.00 | 0.00 | 27 | 999.8 |
| 20260504195056 | 74 | 14 | 5.0 | 14.0 | 0.00 | 0.00 | 0.00 | 28 | 999.8 |
| 20260504194555 | 75 | 328 | 6.0 | 14.0 | 0.00 | 0.00 | 0.00 | 27 | 999.9 |
| 20260504194051 | 75 | 336 | 7.0 | 12.0 | 0.00 | 0.00 | 0.00 | 27 | 1000.0 |
| 20260504193552 | 74 | 308 | 7.0 | 12.0 | 0.00 | 0.00 | 0.00 | 28 | 1000.1 |
| 20260504193050 | 74 | 311 | 7.0 | 13.0 | 0.00 | 0.00 | 0.00 | 29 | 1000.1 |
| 20260504192550 | 74 | 338 | 6.0 | 14.0 | 0.00 | 0.00 | 0.00 | 29 | 1000.2 |
| 20260504192048 | 73 | 309 | 10.0 | 14.0 | 0.00 | 0.00 | 0.00 | 29 | 1000.3 |
| 20260504191547 | 71 | 313 | 8.0 | 14.0 | 0.00 | 0.00 | 0.00 | 30 | 1000.3 |
| 20260504191046 | 72 | 308 | 8.0 | 16.0 | 0.00 | 0.00 | 0.00 | 30 | 1000.2 |
| 20260504190546 | 72 | 330 | 11.0 | 16.0 | 0.00 | 0.00 | 0.00 | 29 | 1000.4 |
| 20260504190055 | 72 | 245 | 2.0 | 8.0 | 0.00 | 0.00 | 0.00 | 30 | 1000.3 |
| 20260504185544 | 71 | 294 | 0.0 | 8.0 | 0.00 | 0.00 | 0.00 | 31 | 1000.4 |
| 20260504185044 | 71 | 298 | 1.0 | 7.0 | 0.00 | 0.00 | 0.00 | 31 | 1000.5 |
| 20260504184559 | 71 | 293 | 3.0 | 6.0 | 0.00 | 0.00 | 0.00 | 30 | 1000.5 |
| 20260504184043 | 71 | 196 | 0.0 | 3.0 | 0.00 | 0.00 | 0.00 | 33 | 1000.6 |
| 20260504183543 | 71 | 196 | 0.0 | 9.0 | 0.00 | 0.00 | 0.00 | 28 | 1000.6 |
| 20260504183053 | 71 | 266 | 2.0 | 9.0 | 0.00 | 0.00 | 0.00 | 29 | 1000.6 |
| 20260504182546 | 72 | 263 | 2.0 | 6.0 | 0.00 | 0.00 | 0.00 | 28 | 1000.6 |
| 20260504182042 | 72 | 90 | 0.0 | 8.0 | 0.00 | 0.00 | 0.00 | 28 | 1000.7 |
| 20260504181541 | 73 | 44 | 2.0 | 8.0 | 0.00 | 0.00 | 0.00 | 29 | 1000.9 |
| 20260504181040 | 73 | 129 | 0.0 | 4.0 | 0.00 | 0.00 | 0.00 | 28 | 1000.8 |
| 20260504180538 | 73 | 132 | 1.0 | 7.0 | 0.00 | 0.00 | 0.00 | 28 | 1001.0 |
| 20260504180040 | 74 | 140 | 1.0 | 7.0 | 0.00 | 0.00 | 0.00 | 27 | 1001.1 |
| 20260504175536 | 73 | 174 | 0.0 | 5.0 | 0.00 | 0.00 | 0.00 | 29 | 1001.1 |
| 20260504175037 | 72 | 159 | 0.0 | 5.0 | 0.00 | 0.00 | 0.00 | 29 | 1001.0 |
| 20260504174534 | 72 | 148 | 0.0 | 3.0 | 0.00 | 0.00 | 0.00 | 29 | 1001.1 |
| 20260504174033 | 71 | 155 | 1.0 | 3.0 | 0.00 | 0.00 | 0.00 | 29 | 1001.1 |
| 20260504173533 | 71 | 150 | 0.0 | 4.0 | 0.00 | 0.00 | 0.00 | 30 | 1001.3 |
| 20260504173031 | 71 | 127 | 1.0 | 5.0 | 0.00 | 0.00 | 0.00 | 29 | 1001.2 |
| 20260504172529 | 70 | 192 | 1.0 | 7.0 | 0.00 | 0.00 | 0.00 | 30 | 1001.4 |
| 20260504172029 | 70 | 122 | 1.0 | 5.0 | 0.00 | 0.00 | 0.00 | 30 | 1001.3 |
| 20260504171539 | 70 | 155 | 1.0 | 9.0 | 0.00 | 0.00 | 0.00 | 30 | 1001.2 |
| 20260504171029 | 71 | 163 | 1.0 | 9.0 | 0.00 | 0.00 | 0.00 | 29 | 1001.4 |
| 20260504170528 | 70 | 157 | 1.0 | 7.0 | 0.00 | 0.00 | 0.00 | 31 | 1001.4 |
| 20260504151058 | 65 | 167 | 3.0 | 9.0 | 0.00 | 0.00 | 0.00 | 37 | 1001.8 |
| 20260504150600 | 65 | 134 | 2.0 | 9.0 | 0.00 | 0.00 | 0.00 | 37 | 1001.8 |
| 20260504141047 | 62 | 129 | 2.0 | 6.0 | 0.00 | 0.00 | 0.00 | 41 | 1002.2 |
| 20260504140544 | 62 | 171 | 1.0 | 5.0 | 0.00 | 0.00 | 0.00 | 42 | 1002.2 |
| 20260504130535 | 60 | 170 | 3.0 | 5.0 | 0.00 | 0.00 | 0.00 | 45 | 1002.3 |
| 20260504110524 | 59 | 292 | 1.0 | 4.0 | 0.00 | 0.00 | 0.00 | 40 | 1002.9 |
| 20260504100517 | 60 | 155 | 0.0 | 6.0 | 0.00 | 0.00 | 0.00 | 38 | 1002.4 |